sat.trackr.live / text

‹ back to catalog

STARLINK-34350

NORAD 64276 · 2025-120W

PAYLOAD ACTIVE UNKNOWN

§ Identity

Operator
Country
US
Launch date
2025-06-04
Launch site
AFWTR
Launch vehicle
Mass (kg)
RCS (m²)

Purposes: comms

External: N2YO · Heavens-Above · Gunter

§ Orbital elements

Epoch: 2026-09-20T08:39:21.704832Z

Period
93.85 min
Inclination
53.1588°
Eccentricity
0.0001203
Mean motion
15.34404834 rev/d
Perigee alt
461.9 km
Apogee alt
463.5 km
Semi-major
6,840.8 km
B*
5.6602e-4
RAAN
286.6075°
Arg perigee
83.4613°
Mean anomaly
276.6526°
Rev number
7,380

§ Raw data

STARLINK-343501 64276U 25120W   26263.36066788  .00018799  00000+0  56602-3 0  99932 64276  53.1588 286.6075 0001203  83.4613 276.6526 15.34404834 73800

JSON: /api/v1/satellites/64276 · /tle

For live sub-satellite position, see the globe view (requires WebGL).

§ Visibility from observer

Set your observer location to see the next 7 days of passes ≥ 10°. The values pass through the URL so the page stays shareable.

No JS? Fill the form by hand. The geolocation button needs JavaScript.